Dewpoint
67 66 68 71 71 71 70 69 71 71 72 72 73 72 71 72 71 71 72 72 72 72 71 71 71 72 73 72 73 74 72 72 74 74 72 72 73 74 74 74 74 72 73
69 67 67 68 70 71 70 71 71 71 70 68 71 72 72 71 70 70 71 70 72 71 72 71 72 71 71 73 73 72 73 72 73 74 75 74 74 75 74 74 73 72 73
71 70 68 67 67 71 70 71 72 71 71 71 70 72 72 71 70 71 70 71 71 73 72 72 74 74 73 71 72 73 74 75 75 75 75 75 75 75 75 74 74 74 74
71 71 69 69 69 70 72 71 71 71 70 70 70 71 71 72 71 71 71 71 72 71 72 73 74 74 73 72 72 73 75 76 76 76 75 75 75 75 75 75 75 75 75
71 70 69 68 69 68 71 71 71 71 69 70 70 70 70 71 71 71 71 71 71 71 70 73 74 74 72 73 73 74 75 76 76 76 76 75 76 75 76 75 75 75 76
70 71 69 69 69 70 71 70 70 71 69 70 72 70 68 71 70 71 71 71 70 71 71 70 72 72 75 74 74 75 75 76 76 76 76 76 76 76 76 75 75 76 76
72 71 70 68 67 67 70 70 70 70 69 71 69 68 67 67 70 69 70 70 71 70 70 71 70 71 72 74 74 75 75 76 76 76 76 76 76 75 75 75 75 75 75
72 71 70 70 68 69 69 71 70 70 68 68 68 66 63 66 68 69 70 69 70 70 70 69 70 70 71 72 73 75 75 75 77 76 76 76 76 76 75 75 75 75 75
72 70 70 71 71 70 69 70 71 70 67 70 70 67 62 61 64 68 68 68 67 70 68 69 69 69 69 71 72 74 75 75 76 77 77 76 76 75 75 75 75 75 75
72 71 70 69 72 72 70 71 72 70 70 67 69 71 69 66 64 63 67 67 67 66 68 70 69 68 68 70 71 73 74 74 75 76 77 76 76 76 76 76 75 75 74
72 72 72 72 71 72 71 71 71 70 71 69 68 67 68 66 66 63 60 65 68 69 69 70 68 68 67 69 69 70 72 73 74 75 76 76 76 77 76 76 75 75 75
72 72 72 72 72 72 72 72 72 71 70 71 70 69 66 66 65 65 63 64 65 66 68 70 71 70 69 68 70 71 72 72 73 73 74 75 76 76 76 76 76 75 75
72 73 72 72 72 73 72 72 72 71 72 71 70 70 68 68 69 67 63 62 64 67 68 70 70 70 70 70 69 72 73 71 71 71 71 72 73 75 75 76 76 76 76
71 72 73 73 72 73 73 72 72 71 72 72 71 71 70 70 70 67 64 63 64 65 67 66 69 69 69 69 70 73 71 71 71 70 70 70 71 72 73 74 74 75 75
71 72 72 72 73 73 73 72 72 70 71 71 71 72 71 70 69 69 66 67 65 62 63 65 66 67 68 71 72 70 72 71 70 70 69 69 70 71 72 72 73 73 73
72 72 73 73 72 72 72 71 71 72 71 71 70 70 71 71 70 70 70 68 68 65 63 66 64 68 71 70 70 70 67 71 70 69 69 68 69 70 70 71 71 71 71
72 71 72 72 72 71 72 72 71 70 71 71 71 70 70 69 70 69 68 69 68 68 65 67 68 68 68 66 68 69 68 72 72 69 69 68 68 68 69 69 69 69 70
72 72 71 71 72 72 72 71 71 70 69 70 70 70 70 71 70 70 69 68 68 68 67 65 68 68 68 67 66 68 69 72 73 71 68 68 67 67 67 67 67 67 67
71 71 71 71 71 71 72 72 71 71 71 70 71 70 69 70 69 69 70 69 69 70 69 68 66 69 68 66 66 66 66 64 69 71 68 67 67 66 66 65 65 64 63
68 66 68 70 71 71 71 72 71 71 71 71 71 71 71 70 70 69 69 70 69 69 69 68 67 67 69 69 66 65 68 71 70 72 72 70 68 67 66 65 64 64 63
67 68 68 68 68 68 68 70 71 71 70 70 71 71 71 70 71 70 70 69 70 69 69 68 66 66 67 68 67 68 69 70 71 72 70 70 70 69 68 67 68 67 64
66 66 66 66 67 67 65 65 66 66 67 69 70 70 71 71 71 69 68 68 70 69 68 68 66 67 67 66 68 67 68 65 64 68 69 67 68 68 69 69 68 67 65
66 65 66 66 66 66 65 64 65 64 65 65 66 66 65 65 68 70 70 68 67 66 68 69 68 68 68 68 68 67 68 67 66 69 68 65 66 64 65 70 66 65 64
64 64 65 65 66 66 62 62 63 64 65 65 66 66 66 65 65 66 67 70 70 70 69 69 69 69 69 69 69 69 68 68 68 70 70 67 69 66 69 70 66 64 62
61 61 62 62 63 62 62 61 61 62 64 64 65 65 66 66 64 64 64 64 65 70 68 65 66 66 65 65 67 68 68 66 65 66 69 68 67 69 70 70 71 65 62
59 59 59 61 62 62 61 60 59 61 61 62 63 63 63 61 58 58 60 60 61 62 65 68 69 68 65 66 64 66 68 66 66 66 67 68 68 67 66 70 71 71 70
Lifted_Index
1 1 1 -0 -1 -1 -2 -2 -3 -3 -3 -2 -2 -2 -1 -1 -1 -1 -1 -1 -1 -2 -2 -2 -2 -3 -4 -5 -5 -5 -4 -4 -5 -5 -4 -4 -4 -5 -5 -5 -5 -4 -4
0 0 0 -0 -1 -1 -2 -2 -3 -3 -3 -2 -2 -2 -2 -2 -1 -1 -1 -1 -2 -2 -2 -2 -3 -3 -4 -4 -5 -5 -5 -5 -5 -5 -5 -4 -4 -5 -5 -5 -5 -4 -4
-1 -1 -0 -0 -1 -1 -2 -3 -3 -3 -3 -2 -2 -3 -3 -2 -2 -1 -1 -1 -2 -2 -2 -3 -3 -4 -4 -4 -4 -5 -5 -6 -6 -6 -5 -5 -5 -5 -5 -5 -5 -5 -5
-2 -1 -0 0 -1 -2 -2 -3 -3 -3 -3 -3 -3 -3 -3 -3 -3 -2 -2 -2 -2 -3 -3 -3 -4 -4 -4 -4 -4 -5 -6 -6 -6 -6 -6 -6 -6 -6 -6 -5 -5 -5 -5
-2 -1 -0 0 -0 -1 -2 -3 -3 -3 -3 -3 -3 -3 -3 -3 -3 -2 -2 -2 -2 -3 -3 -3 -4 -4 -4 -4 -5 -5 -6 -7 -7 -7 -6 -6 -6 -6 -6 -6 -5 -5 -5
-2 -1 -0 0 -0 -1 -2 -3 -3 -3 -2 -2 -3 -3 -2 -3 -3 -2 -2 -2 -2 -2 -3 -3 -4 -4 -4 -5 -5 -6 -6 -7 -7 -7 -7 -7 -7 -6 -6 -6 -5 -5 -5
-2 -1 -1 0 -0 -1 -2 -3 -3 -2 -2 -2 -2 -2 -2 -2 -3 -2 -2 -2 -2 -2 -2 -3 -3 -3 -4 -5 -5 -6 -6 -7 -7 -7 -7 -7 -7 -6 -6 -5 -5 -5 -5
-2 -1 -1 -1 -1 -1 -2 -3 -3 -2 -1 -1 -2 -2 -2 -2 -2 -2 -2 -2 -2 -2 -2 -2 -3 -3 -3 -4 -5 -5 -6 -6 -7 -7 -7 -7 -6 -6 -6 -5 -5 -5 -4
-2 -2 -1 -1 -1 -2 -2 -3 -3 -3 -2 -2 -2 -2 -2 -2 -2 -2 -2 -2 -2 -2 -2 -2 -2 -2 -3 -3 -4 -5 -6 -6 -7 -7 -7 -7 -6 -6 -5 -5 -5 -4 -4
-2 -2 -1 -1 -2 -2 -3 -3 -3 -3 -3 -3 -3 -2 -2 -2 -1 -1 -1 -1 -2 -2 -2 -2 -2 -2 -2 -3 -3 -4 -5 -6 -6 -7 -7 -7 -6 -6 -5 -5 -5 -4 -4
-2 -2 -2 -2 -2 -3 -3 -3 -4 -3 -3 -3 -3 -2 -2 -2 -1 -1 -0 -1 -1 -2 -2 -2 -2 -2 -2 -3 -3 -3 -4 -5 -5 -6 -6 -6 -6 -6 -5 -5 -4 -4 -4
-4 -3 -3 -3 -3 -3 -4 -4 -4 -4 -4 -4 -3 -3 -2 -2 -2 -1 -1 -1 -1 -2 -2 -3 -2 -2 -2 -3 -3 -3 -3 -4 -4 -5 -5 -5 -5 -5 -5 -5 -5 -4 -4
-4 -4 -4 -4 -4 -4 -4 -4 -4 -4 -4 -4 -4 -3 -3 -2 -2 -2 -1 -1 -1 -2 -3 -3 -2 -2 -2 -3 -3 -3 -3 -3 -3 -3 -3 -4 -4 -4 -4 -5 -5 -5 -4
-4 -4 -4 -4 -4 -4 -4 -4 -4 -4 -4 -4 -4 -4 -3 -3 -2 -2 -2 -1 -1 -2 -2 -3 -2 -1 -2 -2 -2 -3 -3 -3 -3 -3 -3 -2 -2 -3 -3 -4 -4 -4 -4
-4 -4 -4 -4 -4 -4 -4 -4 -4 -4 -4 -5 -5 -4 -4 -3 -3 -3 -3 -2 -2 -2 -2 -2 -2 -1 -1 -2 -2 -2 -2 -2 -2 -3 -2 -2 -2 -2 -2 -2 -2 -3 -3
-5 -5 -4 -4 -4 -4 -4 -4 -4 -4 -4 -4 -4 -4 -4 -4 -3 -3 -3 -3 -3 -2 -2 -2 -2 -2 -2 -1 -1 -1 -1 -2 -2 -3 -3 -3 -2 -2 -1 -1 -1 -1 -1
-5 -5 -4 -4 -4 -4 -4 -3 -3 -3 -3 -4 -4 -4 -4 -4 -3 -3 -3 -3 -3 -2 -2 -2 -3 -3 -2 -1 -1 -1 -1 -2 -3 -3 -3 -3 -3 -3 -2 -1 -1 -0 -0
-4 -4 -4 -4 -4 -4 -4 -3 -3 -3 -3 -3 -3 -3 -3 -3 -3 -3 -3 -3 -3 -3 -3 -3 -3 -3 -2 -2 -2 -2 -2 -2 -3 -4 -4 -4 -4 -3 -3 -2 -2 -1 -0
-3 -3 -3 -3 -3 -3 -3 -3 -3 -3 -3 -3 -3 -3 -3 -3 -3 -3 -3 -3 -3 -3 -3 -3 -2 -2 -3 -3 -3 -2 -2 -2 -3 -5 -5 -5 -4 -4 -3 -3 -3 -2 -2
-1 -1 -1 -2 -2 -2 -2 -3 -3 -3 -3 -3 -3 -3 -3 -3 -3 -3 -3 -3 -3 -3 -3 -2 -2 -2 -2 -3 -3 -3 -3 -3 -4 -5 -5 -5 -4 -4 -3 -3 -3 -3 -2
0 0 0 -0 -1 -1 -1 -2 -2 -2 -2 -2 -2 -3 -3 -3 -3 -3 -3 -3 -3 -3 -3 -2 -2 -2 -2 -2 -3 -3 -3 -3 -4 -4 -4 -4 -4 -3 -3 -3 -3 -3 -3
1 1 1 1 0 0 -0 -0 -0 -0 -0 -1 -1 -1 -2 -2 -2 -2 -3 -3 -3 -3 -3 -2 -2 -3 -3 -2 -2 -2 -3 -3 -3 -3 -3 -3 -3 -3 -2 -2 -2 -2 -3
2 2 1 1 1 1 1 1 1 1 1 1 0 0 -0 -0 -1 -1 -2 -3 -3 -3 -3 -3 -3 -3 -3 -2 -2 -2 -2 -2 -3 -3 -3 -3 -3 -3 -2 -2 -2 -2 -2
3 3 2 2 2 2 1 1 1 2 2 2 1 1 1 1 0 0 -0 -1 -2 -3 -3 -3 -3 -3 -3 -3 -3 -2 -2 -2 -2 -3 -3 -3 -3 -3 -3 -3 -3 -3 -3
5 5 4 4 3 3 3 3 2 2 2 2 2 2 1 1 1 1 1 1 -0 -1 -2 -2 -3 -3 -3 -3 -3 -3 -2 -2 -2 -2 -3 -3 -3 -3 -3 -3 -3 -4 -3
6 6 6 5 4 4 4 4 4 3 3 3 2 2 2 1 1 1 2 2 1 0 -1 -2 -2 -3 -3 -3 -3 -3 -2 -2 -2 -2 -3 -3 -3 -3 -3 -3 -4 -4 -4